Temperature
-0 -0 -0 -0 -1 -1 -1 -1 -1 -1 -0 -0 -0 -0 0 0 0 0 0 0 0 0 0 1 1 1 1 1 1 1 1 0 0 1 1 2 2 2 3 3 3 3 3
-1 -1 -1 -1 -1 -1 -1 -1 -1 -1 -1 -1 -1 -1 -1 -0 -0 -1 -0 -0 -0 -0 -0 -0 0 0 0 0 0 0 0 -0 -0 -0 1 1 1 1 2 2 2 3 3
-2 -2 -2 -2 -2 -2 -2 -2 -2 -2 -2 -2 -2 -1 -1 -1 -1 -1 -1 -1 -1 -1 -1 -1 -1 -1 -1 -0 -1 -1 -0 -1 -1 -1 -0 0 0 1 1 1 2 2 2
-2 -2 -2 -2 -2 -2 -2 -2 -2 -2 -2 -2 -2 -2 -2 -2 -2 -2 -2 -2 -2 -2 -2 -2 -2 -2 -1 -1 -1 -1 -1 -1 -1 -1 -1 -1 -0 -0 0 0 1 1 2
-3 -3 -3 -3 -3 -3 -3 -3 -3 -3 -3 -3 -3 -3 -3 -3 -3 -3 -3 -3 -3 -3 -2 -2 -2 -2 -2 -2 -2 -2 -2 -2 -2 -2 -2 -1 -1 -1 -1 -0 -0 0 1
-3 -3 -3 -4 -4 -4 -4 -4 -3 -3 -3 -3 -3 -3 -3 -4 -3 -4 -4 -3 -3 -3 -3 -3 -3 -3 -3 -3 -3 -2 -2 -2 -2 -2 -2 -2 -2 -2 -1 -1 -1 -1 -0
-4 -4 -4 -4 -4 -4 -4 -4 -4 -4 -4 -4 -4 -4 -4 -4 -4 -4 -4 -4 -4 -4 -4 -4 -3 -3 -3 -3 -3 -3 -3 -3 -3 -3 -3 -2 -2 -2 -2 -2 -2 -2 -1
-4 -5 -5 -5 -5 -5 -5 -5 -5 -5 -5 -5 -5 -5 -5 -5 -5 -5 -5 -5 -5 -5 -4 -4 -4 -4 -4 -4 -4 -4 -4 -3 -3 -3 -3 -3 -3 -3 -3 -3 -3 -2 -2
-5 -5 -5 -5 -6 -6 -6 -6 -6 -6 -6 -6 -6 -6 -5 -5 -5 -5 -5 -5 -5 -5 -5 -5 -5 -5 -5 -4 -4 -4 -4 -4 -4 -4 -4 -4 -3 -3 -3 -3 -3 -3 -3
-6 -6 -6 -6 -6 -6 -6 -6 -6 -6 -6 -7 -7 -6 -6 -6 -6 -6 -6 -6 -6 -6 -6 -6 -5 -5 -5 -5 -5 -5 -5 -4 -4 -4 -4 -4 -4 -4 -4 -4 -4 -4 -4
-6 -6 -6 -6 -7 -7 -7 -7 -7 -7 -7 -7 -7 -7 -7 -7 -6 -6 -6 -6 -7 -6 -6 -6 -6 -6 -6 -5 -5 -5 -5 -5 -5 -5 -5 -4 -4 -4 -4 -4 -4 -5 -5
-7 -7 -7 -7 -7 -7 -8 -8 -8 -8 -8 -8 -8 -8 -8 -8 -7 -7 -7 -7 -7 -7 -7 -7 -7 -6 -6 -6 -6 -6 -6 -5 -5 -5 -5 -5 -5 -5 -5 -5 -5 -5 -5
-7 -7 -8 -8 -8 -8 -8 -8 -8 -8 -9 -9 -9 -9 -9 -8 -8 -8 -8 -8 -7 -7 -7 -7 -7 -7 -7 -6 -6 -6 -6 -6 -6 -6 -6 -6 -6 -6 -6 -5 -5 -5 -6
-8 -8 -8 -8 -8 -9 -9 -9 -9 -9 -9 -9 -9 -9 -9 -9 -9 -9 -8 -8 -8 -8 -8 -8 -8 -7 -7 -7 -7 -7 -7 -7 -7 -7 -7 -6 -6 -6 -6 -6 -6 -6 -6
-9 -9 -9 -9 -9 -9 -9 -9 -9 -10 -10 -10 -10 -10 -10 -10 -10 -9 -9 -9 -9 -8 -8 -8 -8 -8 -8 -8 -7 -7 -7 -7 -8 -7 -7 -7 -7 -7 -7 -7 -7 -7 -7
-9 -9 -9 -9 -10 -10 -10 -9 -9 -10 -10 -10 -10 -10 -10 -10 -10 -10 -10 -9 -9 -9 -9 -9 -9 -9 -9 -9 -8 -8 -8 -8 -8 -8 -8 -8 -7 -8 -7 -7 -7 -7 -7
-10 -10 -10 -10 -10 -10 -10 -10 -10 -9 -10 -10 -10 -10 -10 -10 -10 -10 -10 -10 -10 -10 -10 -10 -10 -10 -9 -9 -9 -9 -9 -9 -9 -8 -8 -8 -8 -8 -8 -8 -8 -8 -8
-10 -10 -10 -10 -11 -11 -11 -10 -10 -10 -10 -10 -10 -10 -10 -11 -11 -11 -11 -10 -10 -10 -10 -10 -10 -10 -10 -10 -10 -10 -9 -9 -9 -9 -8 -8 -8 -8 -8 -8 -8 -8 -8
-10 -11 -11 -11 -11 -11 -11 -11 -11 -11 -11 -11 -11 -11 -11 -11 -11 -11 -11 -11 -11 -11 -11 -11 -11 -11 -11 -10 -10 -10 -10 -9 -9 -9 -9 -9 -9 -9 -9 -9 -9 -9 -9
-11 -11 -11 -11 -11 -11 -11 -11 -11 -11 -11 -11 -11 -11 -11 -11 -11 -11 -11 -11 -12 -12 -12 -12 -12 -12 -11 -11 -11 -10 -10 -10 -10 -9 -9 -9 -9 -9 -9 -9 -9 -9 -9
-11 -11 -11 -11 -11 -12 -12 -12 -12 -12 -12 -12 -12 -12 -12 -12 -12 -12 -12 -12 -12 -12 -12 -12 -12 -12 -11 -11 -11 -11 -11 -11 -10 -10 -10 -10 -10 -10 -9 -10 -10 -10 -9
-12 -12 -12 -12 -12 -12 -12 -12 -12 -12 -12 -12 -12 -12 -12 -12 -12 -12 -12 -12 -12 -12 -12 -12 -12 -12 -12 -11 -11 -11 -11 -11 -11 -11 -10 -10 -10 -10 -10 -10 -10 -10 -10
-12 -12 -12 -12 -12 -12 -12 -12 -12 -12 -12 -12 -12 -12 -12 -12 -12 -12 -12 -12 -12 -12 -12 -12 -12 -12 -11 -11 -11 -11 -11 -11 -11 -11 -11 -11 -10 -10 -10 -10 -10 -10 -10
-12 -12 -12 -12 -12 -13 -13 -13 -13 -13 -13 -13 -13 -13 -13 -12 -12 -12 -12 -12 -12 -12 -12 -12 -12 -12 -11 -11 -11 -11 -11 -11 -11 -11 -11 -11 -11 -11 -11 -11 -11 -11 -11
-12 -13 -13 -13 -13 -13 -13 -13 -13 -13 -13 -13 -13 -13 -13 -13 -13 -13 -13 -13 -13 -12 -12 -12 -12 -12 -12 -11 -11 -11 -11 -11 -11 -11 -11 -11 -11 -11 -11 -11 -11 -11 -11
-13 -13 -13 -13 -13 -13 -14 -14 -14 -14 -14 -14 -13 -13 -13 -13 -13 -13 -13 -13 -13 -13 -13 -12 -12 -12 -12 -12 -11 -11 -11 -11 -11 -11 -11 -11 -11 -11 -11 -12 -11 -11 -11
Wind_Speed
2 2 2 3 3 3 3 3 4 4 4 4 4 4 4 4 4 4 4 4 5 6 6 7 8 6 6 5 5 5 5 6 9 8 5 4 5 6 8 10 11 10 11
2 2 2 3 3 3 3 4 4 4 4 4 4 4 4 4 4 5 5 5 5 6 7 7 8 7 7 6 6 7 6 6 7 10 7 5 6 6 6 7 7 9 9
2 2 2 3 3 4 4 4 4 4 4 4 4 4 4 5 5 5 5 6 6 7 7 7 8 7 8 6 6 7 6 7 6 8 8 5 5 5 5 6 6 6 8
3 2 3 4 4 4 4 4 4 4 4 4 4 5 5 5 5 5 5 6 6 7 6 7 8 8 8 8 7 7 7 7 7 7 8 6 5 4 4 5 6 4 5
3 3 4 4 4 4 4 4 4 4 4 4 4 5 5 5 5 5 6 6 7 7 7 7 8 9 10 9 8 7 7 7 7 7 8 6 6 4 5 4 6 6 5
3 3 4 4 4 4 4 4 4 4 4 4 4 5 5 5 8 9 8 7 7 7 7 7 7 9 11 13 13 12 10 9 9 8 8 8 8 6 5 5 6 6 6
3 4 4 4 5 5 5 5 5 5 5 5 5 5 6 7 9 10 10 7 6 6 7 7 7 8 10 8 11 13 12 14 13 10 10 10 8 7 6 7 7 7 8
3 4 4 4 5 5 5 5 6 5 5 5 6 5 5 7 8 9 10 7 6 7 7 7 8 8 8 9 8 9 9 10 11 10 10 9 8 7 8 8 8 8 6
3 4 4 4 5 5 6 6 5 5 5 6 6 5 5 7 9 10 10 5 5 7 7 8 8 8 11 12 10 9 9 9 10 12 13 12 12 12 9 6 5 6 7
4 5 5 4 5 5 6 6 5 5 5 6 6 6 6 6 9 10 10 5 5 6 6 7 9 10 11 12 9 9 10 9 8 8 9 10 10 10 11 8 7 7 6
5 5 5 4 5 5 5 5 5 5 5 5 6 6 6 7 9 10 10 5 5 6 6 6 6 10 12 12 11 8 10 9 7 7 7 7 6 6 6 7 7 7 8
4 4 5 5 4 4 4 5 4 4 5 5 5 6 5 6 8 8 10 10 8 6 6 5 6 10 11 12 10 9 11 9 5 5 6 6 6 6 6 6 7 8 9
4 4 5 5 5 5 4 5 5 4 4 5 5 5 6 5 6 10 11 12 11 6 5 8 9 10 10 8 9 10 8 6 5 6 6 6 5 5 4 4 5 6 7
4 4 5 4 5 5 4 4 4 4 4 5 5 5 6 6 6 6 6 7 8 7 6 8 10 9 7 7 7 6 5 5 5 6 6 5 4 4 4 4 5 4 5
4 4 4 4 4 5 5 4 5 5 5 6 5 5 6 6 8 10 8 6 5 5 5 4 3 4 4 4 4 4 4 4 5 6 6 5 5 5 5 4 4 4 5
3 4 4 4 4 4 5 6 7 7 9 10 9 9 7 9 12 12 12 11 11 9 6 4 4 4 4 4 5 5 4 5 5 5 5 5 5 5 5 4 4 4 5
4 4 4 4 4 4 4 5 6 8 9 9 10 11 10 11 12 12 11 11 10 8 4 4 4 5 5 5 5 5 5 5 5 5 5 5 5 5 4 4 4 4 4
4 5 4 4 4 4 4 5 5 6 7 7 9 11 12 12 12 11 11 8 6 5 3 4 5 5 5 5 5 5 5 4 4 4 5 5 5 4 4 4 4 4 4
4 4 4 4 4 4 5 5 5 6 6 6 6 8 11 11 11 10 8 4 4 4 4 5 5 5 5 5 5 5 5 5 4 4 4 4 4 4 4 4 4 5 5
4 6 5 4 4 4 4 5 5 5 6 6 6 7 7 7 5 6 5 4 4 5 5 5 5 5 5 5 5 4 4 4 4 4 4 4 4 4 4 5 4 4 4
4 5 7 5 4 4 4 5 5 5 6 6 6 8 9 5 5 6 5 5 5 5 5 5 5 5 5 5 5 5 5 5 5 4 4 4 4 4 4 4 4 3 3
3 4 4 4 4 5 5 5 5 5 6 7 7 7 11 6 5 5 6 6 5 5 5 5 6 5 5 5 5 5 5 5 5 4 4 4 4 4 3 3 3 3 3
3 4 4 4 4 6 6 5 5 5 6 6 6 6 6 6 5 6 6 6 5 6 6 6 6 6 6 6 6 6 6 6 5 4 4 4 4 3 3 3 3 3 3
3 4 4 4 4 4 5 5 5 5 6 6 6 6 6 6 6 7 6 6 6 6 6 6 6 7 8 7 6 6 6 6 5 5 5 4 4 3 3 2 2 3 3
3 4 4 4 4 4 5 5 5 5 6 6 6 6 6 6 6 6 6 5 6 6 6 6 6 6 8 8 7 6 7 7 6 5 4 4 3 3 3 3 2 2 2
3 4 4 4 4 4 4 5 5 5 6 6 6 6 6 6 6 6 5 5 5 5 6 6 7 8 8 8 8 7 7 7 6 5 4 3 3 3 3 3 3 2 2
Wind_Direction
299 300 310 305 296 288 273 273 270 277 269 263 264 263 264 264 258 252 250 251 245 244 244 240 236 233 226 225 225 230 236 237 255 270 265 274 273 274 281 266 264 263 263
314 323 321 316 313 310 300 290 285 280 274 266 265 264 265 266 261 250 253 254 246 250 246 243 243 238 229 227 225 230 235 236 246 266 273 269 266 267 271 271 267 264 265
323 323 320 315 313 309 304 304 298 282 281 279 271 264 264 264 262 255 249 250 245 247 247 242 245 235 236 232 231 234 238 243 243 257 271 270 272 275 276 280 270 262 267
318 312 309 305 302 300 303 307 302 288 284 283 277 272 268 267 264 260 255 253 253 252 253 247 242 235 236 234 237 237 237 242 245 252 263 272 274 273 268 275 278 257 262
319 310 303 304 306 308 309 310 308 306 295 287 283 282 280 271 264 259 257 256 256 258 256 250 244 240 243 241 242 238 236 240 244 248 257 265 266 266 263 269 279 276 262
310 307 313 319 320 318 315 316 316 314 306 294 288 284 282 278 278 277 272 262 259 258 260 260 256 251 249 252 253 251 244 240 242 245 251 254 258 257 262 265 271 279 272
313 317 321 324 324 321 320 323 318 316 315 301 293 287 282 282 282 280 280 277 266 262 262 265 268 263 257 248 254 257 256 252 248 246 249 250 254 252 254 262 259 265 268
315 319 322 323 319 318 322 320 318 317 314 306 301 294 292 294 293 291 289 282 269 264 260 259 262 265 260 251 247 250 253 255 252 247 246 248 251 250 244 250 259 270 275
309 310 311 312 311 315 316 315 313 312 312 308 303 300 297 299 300 296 293 280 273 269 265 261 260 260 265 263 256 253 255 257 260 254 254 256 257 259 256 253 255 264 273
295 297 301 303 303 304 305 307 307 305 304 308 308 307 300 298 303 301 297 279 276 276 272 267 268 267 269 267 256 251 254 254 254 259 258 261 260 259 255 246 243 252 267
299 302 305 306 301 298 302 304 305 308 311 310 309 309 304 303 308 309 305 289 276 277 277 274 270 277 275 271 266 253 255 258 252 252 255 254 251 246 243 242 239 239 249
305 306 307 308 307 310 310 310 309 310 311 310 313 314 311 309 312 311 310 304 297 282 278 276 276 283 279 275 270 266 269 269 257 253 254 255 253 251 245 240 241 241 243
309 308 309 312 311 310 307 307 311 308 307 309 311 311 313 314 312 314 313 310 303 292 282 286 289 290 289 283 280 277 274 264 257 255 255 256 256 253 250 250 248 250 254
307 309 312 315 316 314 306 300 300 300 303 303 302 302 306 310 312 311 309 309 304 294 291 288 289 290 286 285 286 283 269 261 259 257 259 258 255 252 250 248 249 250 258
305 307 313 313 309 311 308 297 296 284 288 294 295 295 303 305 310 316 314 310 307 299 304 297 295 291 285 280 278 274 270 264 260 259 262 261 255 255 258 251 246 246 252
306 309 308 308 306 307 310 313 308 305 308 308 308 309 302 304 311 315 317 316 317 317 312 297 291 287 282 279 275 274 270 265 263 263 261 259 253 253 258 257 250 243 244
285 293 297 300 301 303 305 308 312 318 315 313 313 314 313 314 314 315 317 319 319 320 311 299 293 290 286 283 277 269 266 264 263 261 259 260 255 250 251 252 249 248 248
292 292 296 290 292 294 294 295 296 302 310 313 314 315 317 316 317 317 318 320 318 318 299 295 293 290 288 285 281 278 275 272 266 264 264 260 251 250 249 250 249 248 249
295 291 289 290 290 290 292 294 294 295 296 301 308 314 317 315 315 316 319 309 298 298 297 294 293 292 292 289 284 280 277 275 270 265 263 257 250 246 247 248 250 250 248
292 295 301 296 294 294 294 294 292 293 295 296 300 304 313 315 314 314 310 296 290 290 292 292 293 291 289 289 287 283 280 278 276 268 265 258 247 244 247 247 245 243 245
290 295 301 300 292 289 290 290 288 289 291 294 293 298 307 302 299 300 300 296 289 286 287 287 288 290 287 282 280 280 279 277 273 271 268 262 251 246 244 244 245 242 237
282 285 289 288 289 289 291 290 290 288 290 293 297 301 309 305 298 296 293 292 288 283 280 280 281 280 280 279 275 273 273 272 271 268 267 267 260 250 241 235 237 243 243
283 288 292 293 292 296 302 298 293 291 292 292 296 299 302 300 297 295 294 294 293 290 285 280 282 283 280 276 269 261 262 263 264 260 259 258 258 253 242 236 234 233 235
284 284 288 293 294 292 294 296 297 295 293 294 294 295 295 295 294 294 293 293 292 291 288 285 282 285 287 286 280 274 269 270 264 248 235 235 240 238 233 224 222 219 222
289 291 293 294 297 297 298 299 300 302 301 297 295 295 296 297 296 295 293 291 290 291 290 289 285 285 287 287 284 281 286 290 286 266 235 218 215 219 217 213 211 216 218
301 299 297 298 297 296 297 298 299 301 300 300 300 297 297 296 297 297 297 295 295 294 292 290 289 290 291 288 287 292 299 298 291 283 253 211 201 208 207 210 205 209 209
Height
1469 1469 1468 1467 1467 1466 1465 1464 1463 1463 1463 1463 1463 1462 1463 1463 1464 1465 1465 1466 1467 1468 1469 1470 1470 1472 1473 1474 1475 1476 1477 1478 1476 1474 1476 1476 1477 1478 1478 1479 1479 1480 1480
1466 1465 1465 1464 1463 1462 1461 1460 1458 1458 1458 1457 1457 1456 1457 1457 1458 1459 1459 1459 1460 1461 1462 1463 1463 1464 1465 1467 1468 1469 1470 1471 1471 1468 1468 1469 1470 1471 1471 1471 1472 1472 1473
1463 1462 1461 1460 1459 1457 1456 1455 1454 1454 1453 1452 1452 1451 1451 1452 1452 1453 1453 1453 1454 1454 1455 1456 1456 1457 1458 1460 1461 1462 1463 1464 1464 1463 1461 1463 1463 1464 1464 1464 1465 1465 1465
1460 1459 1458 1457 1455 1454 1452 1450 1450 1449 1448 1447 1446 1446 1446 1446 1446 1446 1447 1447 1447 1447 1448 1449 1450 1451 1451 1452 1453 1454 1455 1456 1456 1456 1455 1455 1456 1457 1457 1457 1456 1457 1457
1457 1456 1454 1453 1451 1450 1448 1446 1445 1444 1443 1442 1441 1441 1440 1440 1440 1440 1441 1441 1440 1440 1441 1442 1443 1444 1444 1446 1446 1447 1449 1449 1449 1449 1449 1449 1449 1450 1450 1450 1449 1449 1449
1454 1453 1451 1449 1448 1446 1444 1442 1441 1440 1438 1437 1436 1435 1434 1434 1435 1435 1435 1435 1434 1434 1435 1436 1436 1437 1438 1439 1439 1441 1442 1442 1442 1442 1441 1441 1442 1443 1444 1444 1443 1442 1441
1451 1449 1448 1446 1444 1442 1440 1438 1437 1435 1433 1432 1431 1430 1429 1429 1429 1429 1430 1429 1428 1428 1429 1429 1430 1430 1431 1431 1432 1433 1433 1434 1435 1436 1434 1434 1435 1437 1438 1437 1436 1436 1434
1448 1446 1444 1443 1440 1439 1437 1435 1433 1430 1429 1427 1426 1425 1424 1423 1423 1423 1423 1423 1422 1422 1422 1422 1423 1423 1424 1424 1424 1424 1425 1426 1427 1428 1428 1428 1429 1430 1431 1430 1429 1429 1428
1444 1443 1441 1439 1437 1435 1433 1431 1429 1427 1425 1423 1421 1420 1419 1418 1418 1418 1417 1416 1415 1415 1415 1416 1416 1416 1416 1417 1417 1417 1417 1418 1419 1420 1420 1421 1422 1423 1423 1423 1423 1422 1420
1441 1440 1438 1436 1434 1432 1430 1428 1425 1423 1421 1419 1417 1416 1414 1413 1413 1412 1412 1411 1410 1409 1409 1409 1409 1409 1409 1410 1410 1410 1409 1410 1411 1412 1412 1412 1413 1414 1415 1416 1416 1415 1414
1438 1436 1435 1433 1431 1428 1426 1424 1422 1420 1417 1415 1413 1411 1410 1408 1407 1407 1406 1405 1404 1403 1402 1402 1402 1402 1402 1403 1403 1403 1402 1403 1404 1404 1404 1404 1405 1405 1406 1407 1408 1408 1407
1435 1433 1431 1429 1427 1425 1423 1421 1419 1417 1414 1412 1409 1406 1405 1404 1403 1401 1401 1400 1399 1398 1396 1396 1396 1396 1395 1396 1397 1396 1397 1397 1397 1397 1397 1396 1397 1397 1397 1398 1399 1400 1400
1431 1429 1427 1426 1424 1422 1420 1417 1415 1413 1411 1408 1406 1403 1401 1400 1398 1397 1396 1395 1394 1393 1392 1391 1391 1390 1389 1390 1390 1390 1391 1391 1390 1390 1389 1389 1390 1390 1390 1390 1391 1392 1392
1427 1426 1424 1422 1420 1419 1417 1414 1412 1410 1408 1406 1404 1401 1399 1397 1395 1393 1392 1390 1389 1387 1387 1386 1386 1385 1385 1384 1384 1385 1385 1384 1384 1384 1383 1383 1383 1383 1383 1383 1383 1384 1384
1424 1422 1421 1419 1417 1415 1414 1412 1409 1408 1406 1404 1402 1399 1397 1394 1392 1391 1389 1387 1385 1384 1383 1381 1381 1380 1379 1378 1379 1379 1378 1378 1378 1378 1378 1377 1377 1377 1377 1377 1377 1377 1377
1421 1419 1417 1416 1414 1412 1410 1408 1407 1405 1403 1401 1399 1397 1394 1392 1390 1388 1386 1384 1382 1381 1379 1377 1376 1375 1374 1373 1373 1373 1372 1372 1372 1372 1372 1371 1371 1371 1371 1371 1372 1371 1371
1418 1416 1415 1413 1411 1409 1407 1405 1402 1401 1400 1397 1395 1393 1391 1389 1386 1384 1382 1380 1379 1377 1376 1373 1372 1371 1370 1369 1368 1368 1367 1367 1367 1367 1366 1365 1365 1365 1365 1365 1366 1365 1365
1415 1414 1412 1410 1408 1406 1405 1402 1400 1397 1395 1392 1391 1389 1387 1385 1383 1381 1379 1377 1374 1373 1371 1369 1368 1367 1365 1364 1364 1363 1362 1361 1361 1361 1360 1360 1360 1360 1360 1360 1360 1360 1360
1412 1410 1409 1407 1405 1403 1401 1399 1397 1395 1392 1389 1387 1385 1383 1381 1379 1377 1375 1373 1371 1369 1368 1366 1365 1363 1361 1360 1359 1358 1357 1357 1356 1356 1355 1355 1355 1355 1355 1355 1355 1355 1355
1409 1407 1406 1404 1402 1400 1398 1396 1393 1391 1389 1386 1383 1381 1379 1377 1374 1373 1371 1369 1367 1366 1364 1363 1361 1359 1358 1356 1355 1354 1353 1352 1351 1351 1350 1350 1350 1350 1350 1350 1350 1350 1350
1405 1404 1402 1400 1398 1396 1394 1392 1390 1388 1385 1383 1380 1378 1377 1374 1371 1370 1368 1366 1364 1362 1361 1359 1357 1356 1354 1353 1351 1350 1349 1347 1347 1346 1346 1346 1345 1345 1345 1345 1345 1346 1346
1402 1400 1398 1397 1395 1392 1390 1388 1386 1384 1381 1379 1376 1375 1373 1371 1368 1366 1364 1362 1361 1359 1357 1356 1354 1352 1351 1349 1347 1346 1344 1343 1343 1342 1342 1342 1341 1341 1341 1341 1341 1341 1342
1398 1397 1395 1393 1391 1389 1387 1384 1382 1380 1377 1375 1373 1371 1369 1367 1365 1363 1361 1359 1357 1355 1354 1352 1350 1348 1347 1346 1344 1342 1341 1339 1339 1338 1338 1337 1337 1337 1337 1337 1337 1338 1338
1395 1393 1391 1389 1387 1385 1383 1380 1378 1376 1374 1371 1369 1367 1365 1363 1361 1359 1357 1356 1354 1352 1350 1348 1347 1345 1344 1342 1340 1339 1338 1337 1336 1335 1334 1334 1333 1334 1334 1334 1334 1335 1335
1392 1390 1388 1385 1383 1381 1379 1377 1374 1372 1370 1368 1366 1364 1362 1360 1358 1356 1354 1352 1350 1348 1347 1345 1344 1342 1341 1339 1338 1336 1335 1334 1333 1332 1332 1331 1331 1331 1332 1332 1332 1332 1333
1388 1386 1384 1382 1380 1378 1375 1373 1371 1369 1366 1364 1362 1360 1358 1356 1354 1353 1351 1349 1347 1345 1343 1342 1340 1339 1338 1336 1335 1334 1333 1331 1330 1329 1329 1328 1329 1329 1329 1329 1330 1330 1331